TimeCST,TemperatureF,Dew PointF,Humidity,Sea Level PressureIn,VisibilityMPH,Wind Direction,Wind SpeedMPH,Gust SpeedMPH,PrecipitationIn,Events,Conditions,WindDirDegrees,DateUTC
12:53 AM,36.0,30.0,79,30.34,10.0,Calm,Calm,-,N/A,,Clear,0,2012-11-19 06:53:00
1:53 AM,36.0,30.9,82,30.34,10.0,Calm,Calm,-,N/A,,Clear,0,2012-11-19 07:53:00
2:53 AM,34.0,30.9,89,30.34,10.0,Calm,Calm,-,N/A,,Clear,0,2012-11-19 08:53:00
3:53 AM,32.0,28.0,85,30.34,9.0,Calm,Calm,-,N/A,,Clear,0,2012-11-19 09:53:00
4:53 AM,32.0,28.9,88,30.34,10.0,Calm,Calm,-,N/A,,Clear,0,2012-11-19 10:53:00
5:53 AM,33.1,28.9,85,30.35,9.0,Calm,Calm,-,N/A,,Clear,0,2012-11-19 11:53:00
6:53 AM,32.0,28.9,88,30.35,7.0,Calm,Calm,-,N/A,,Clear,0,2012-11-19 12:53:00
7:53 AM,36.0,33.1,89,30.36,7.0,Calm,Calm,-,N/A,,Clear,0,2012-11-19 13:53:00
8:53 AM,42.1,36.0,79,30.35,9.0,Calm,Calm,-,N/A,,Clear,0,2012-11-19 14:53:00
9:53 AM,48.0,37.9,68,30.36,10.0,Calm,Calm,-,N/A,,Clear,0,2012-11-19 15:53:00
10:53 AM,53.1,37.9,57,30.34,9.0,Calm,Calm,-,N/A,,Clear,0,2012-11-19 16:53:00
11:53 AM,61.0,39.0,44,30.31,10.0,Calm,Calm,-,N/A,,Clear,0,2012-11-19 17:53:00
12:53 PM,64.0,34.0,33,30.27,10.0,Calm,Calm,-,N/A,,Clear,0,2012-11-19 18:53:00
1:53 PM,66.0,33.1,29,30.25,10.0,Calm,Calm,-,N/A,,Clear,0,2012-11-19 19:53:00
2:53 PM,66.9,33.1,28,30.24,10.0,North,3.5,-,N/A,,Clear,10,2012-11-19 20:53:00
3:53 PM,62.1,36.0,38,30.23,10.0,Calm,Calm,-,N/A,,Clear,0,2012-11-19 21:53:00
4:53 PM,57.0,32.0,39,30.22,10.0,Calm,Calm,-,N/A,,Clear,0,2012-11-19 22:53:00
5:53 PM,55.9,33.1,42,30.22,10.0,Calm,Calm,-,N/A,,Clear,0,2012-11-19 23:53:00
6:53 PM,53.1,39.0,59,30.23,10.0,Calm,Calm,-,N/A,,Clear,0,2012-11-20 00:53:00
7:53 PM,52.0,37.9,59,30.22,10.0,Calm,Calm,-,N/A,,Partly Cloudy,0,2012-11-20 01:53:00
9:53 PM,51.1,37.0,59,30.20,10.0,Calm,Calm,-,N/A,,Clear,0,2012-11-20 03:53:00
10:53 PM,50.0,37.9,63,30.19,10.0,Calm,Calm,-,N/A,,Mostly Cloudy,0,2012-11-20 04:53:00
11:53 PM,48.9,39.9,71,30.18,10.0,Calm,Calm,-,N/A,,Mostly Cloudy,0,2012-11-20 05:53:00